| time (UTC) | temp C | wind direction | speed KPH | gust KPH | rain 1hr cm | rain 24hr cm | rain mn cm | humidity % | barometer mb |
| 20260506201455 | 25 | 270 | 22.5 | 32.2 | 0.00 | 0.00 | 0.00 | 16 | 1026.1 |
| 20260506200454 | 26 | 252 | 14.5 | 29.0 | 0.00 | 0.00 | 0.00 | 16 | 1025.6 |
| 20260506195454 | 25 | 260 | 8.0 | 22.5 | 0.00 | 0.00 | 0.00 | 17 | 1025.7 |
| 20260506194448 | 25 | 288 | 17.7 | 20.9 | 0.00 | 0.00 | 0.00 | 17 | 1026.0 |
| 20260506193447 | 25 | 225 | 17.7 | 25.7 | 0.00 | 0.00 | 0.00 | 17 | 1026.1 |
| 20260506192447 | 25 | 247 | 16.1 | 27.4 | 0.00 | 0.00 | 0.00 | 17 | 1026.2 |
| 20260506191446 | 25 | 288 | 22.5 | 27.4 | 0.00 | 0.00 | 0.00 | 16 | 1026.8 |
| 20260506190445 | 25 | 248 | 11.3 | 20.9 | 0.00 | 0.00 | 0.00 | 16 | 1026.6 |
| 20260506185445 | 25 | 246 | 27.4 | 32.2 | 0.00 | 0.00 | 0.00 | 17 | 1026.8 |
| 20260506184445 | 25 | 217 | 20.9 | 27.4 | 0.00 | 0.00 | 0.00 | 17 | 1026.9 |
| 20260506183443 | 25 | 223 | 11.3 | 32.2 | 0.00 | 0.00 | 0.00 | 16 | 1027.0 |
| 20260506182438 | 25 | 261 | 17.7 | 35.4 | 0.00 | 0.00 | 0.00 | 17 | 1027.1 |
| 20260506181433 | 24 | 259 | 11.3 | 24.1 | 0.00 | 0.00 | 0.00 | 16 | 1027.1 |
| 20260506180432 | 24 | 244 | 14.5 | 27.4 | 0.00 | 0.00 | 0.00 | 16 | 1027.3 |
| 20260506175431 | 23 | 262 | 20.9 | 29.0 | 0.00 | 0.00 | 0.00 | 17 | 1027.4 |
| 20260506174426 | 23 | 270 | 16.1 | 25.7 | 0.00 | 0.00 | 0.00 | 16 | 1027.3 |
| 20260506173425 | 23 | 259 | 17.7 | 25.7 | 0.00 | 0.00 | 0.00 | 16 | 1027.3 |
| 20260506172425 | 23 | 250 | 14.5 | 24.1 | 0.00 | 0.00 | 0.00 | 16 | 1027.4 |
| 20260506171425 | 23 | 254 | 12.9 | 22.5 | 0.00 | 0.00 | 0.00 | 16 | 1027.6 |
| 20260506170425 | 22 | 256 | 9.7 | 29.0 | 0.00 | 0.00 | 0.00 | 16 | 1027.6 |
| 20260506165422 | 22 | 259 | 12.9 | 17.7 | 0.00 | 0.00 | 0.00 | 16 | 1027.6 |
| 20260506164420 | 22 | 276 | 9.7 | 20.9 | 0.00 | 0.00 | 0.00 | 16 | 1027.6 |
| 20260506163419 | 22 | 231 | 11.3 | 16.1 | 0.00 | 0.00 | 0.00 | 15 | 1027.5 |
| 20260506162418 | 22 | 278 | 14.5 | 17.7 | 0.00 | 0.00 | 0.00 | 14 | 1027.6 |
| 20260506161413 | 21 | 261 | 8.0 | 14.5 | 0.00 | 0.00 | 0.00 | 16 | 1027.6 |
| 20260506160413 | 21 | 251 | 9.7 | 16.1 | 0.00 | 0.00 | 0.00 | 16 | 1027.6 |
| 20260506155408 | 21 | 303 | 8.0 | 9.7 | 0.00 | 0.00 | 0.00 | 16 | 1027.6 |
| 20260506153530 | 20 | 7 | 1.6 | 9.7 | 0.00 | 0.00 | 0.00 | 17 | 1027.8 |
| 20260506152530 | 20 | 294 | 6.4 | 9.7 | 0.00 | 0.00 | 0.00 | 18 | 1027.8 |
| 20260506151526 | 20 | 278 | 6.4 | 11.3 | 0.00 | 0.00 | 0.00 | 17 | 1027.5 |
| 20260506150525 | 20 | 234 | 11.3 | 12.9 | 0.00 | 0.00 | 0.00 | 18 | 1027.6 |
| 20260506145525 | 20 | 229 | 3.2 | 9.7 | 0.00 | 0.00 | 0.00 | 18 | 1027.5 |
| 20260506144524 | 20 | 250 | 6.4 | 11.3 | 0.00 | 0.00 | 0.00 | 18 | 1027.4 |
| 20260506143520 | 20 | 245 | 6.4 | 11.3 | 0.00 | 0.00 | 0.00 | 18 | 1027.5 |
| 20260506142515 | 20 | 270 | 4.8 | 9.7 | 0.00 | 0.00 | 0.00 | 19 | 1027.0 |
| 20260506141511 | 20 | 268 | 3.2 | 4.8 | 0.00 | 0.00 | 0.00 | 19 | 1026.9 |
| 20260506140506 | 20 | 243 | 0.0 | 1.6 | 0.00 | 0.00 | 0.00 | 21 | 1027.1 |
| 20260506135506 | 18 | 198 | 4.8 | 4.8 | 0.00 | 0.00 | 0.00 | 22 | 1027.0 |
| 20260506134503 | 18 | 221 | 0.0 | 3.2 | 0.00 | 0.00 | 0.00 | 24 | 1026.8 |
| 20260506133503 | 17 | 218 | 4.8 | 9.7 | 0.00 | 0.00 | 0.00 | 24 | 1026.8 |
| 20260506132502 | 17 | 215 | 6.4 | 11.3 | 0.00 | 0.00 | 0.00 | 24 | 1026.2 |
| 20260506131457 | 17 | 227 | 6.4 | 11.3 | 0.00 | 0.00 | 0.00 | 24 | 1026.5 |
| 20260506130456 | 16 | 224 | 4.8 | 9.7 | 0.00 | 0.00 | 0.00 | 25 | 1026.1 |
| 20260506125452 | 16 | 257 | 11.3 | 12.9 | 0.00 | 0.00 | 0.00 | 25 | 1026.5 |
| 20260506124447 | 16 | 260 | 8.0 | 11.3 | 0.00 | 0.00 | 0.00 | 26 | 1026.1 |
| 20260506123442 | 15 | 249 | 4.8 | 9.7 | 0.00 | 0.00 | 0.00 | 27 | 1025.9 |
| 20260506122442 | 15 | 243 | 11.3 | 12.9 | 0.00 | 0.00 | 0.00 | 27 | 1025.9 |
| 20260506121437 | 16 | 234 | 9.7 | 11.3 | 0.00 | 0.00 | 0.00 | 26 | 1025.7 |
| 20260506120432 | 16 | 243 | 9.7 | 12.9 | 0.00 | 0.00 | 0.00 | 26 | 1025.6 |
| 20260506115427 | 16 | 247 | 8.0 | 11.3 | 0.00 | 0.00 | 0.00 | 27 | 1025.5 |
| 20260506114422 | 16 | 259 | 8.0 | 12.9 | 0.00 | 0.00 | 0.00 | 27 | 1025.3 |
| 20260506113418 | 16 | 266 | 9.7 | 11.3 | 0.00 | 0.00 | 0.00 | 26 | 1025.5 |
| 20260506112418 | 16 | 248 | 4.8 | 14.5 | 0.00 | 0.00 | 0.00 | 27 | 1025.2 |
| 20260506111413 | 16 | 254 | 8.0 | 11.3 | 0.00 | 0.00 | 0.00 | 29 | 1025.1 |
| 20260506110413 | 16 | 245 | 9.7 | 14.5 | 0.00 | 0.00 | 0.00 | 29 | 1025.2 |
| 20260506105412 | 16 | 248 | 9.7 | 12.9 | 0.00 | 0.00 | 0.00 | 29 | 1025.5 |
| 20260506104407 | 16 | 247 | 11.3 | 14.5 | 0.00 | 0.00 | 0.00 | 28 | 1025.1 |
| 20260506103402 | 16 | 251 | 8.0 | 16.1 | 0.00 | 0.00 | 0.00 | 28 | 1025.2 |
| 20260506102357 | 16 | 250 | 11.3 | 16.1 | 0.00 | 0.00 | 0.00 | 28 | 1025.2 |
| 20260506101356 | 16 | 258 | 8.0 | 14.5 | 0.00 | 0.00 | 0.00 | 28 | 1025.1 |
| 20260506100352 | 16 | 222 | 11.3 | 20.9 | 0.00 | 0.00 | 0.00 | 27 | 1025.2 |
| 20260506095347 | 17 | 269 | 11.3 | 14.5 | 0.00 | 0.00 | 0.00 | 27 | 1025.2 |
| 20260506094343 | 16 | 252 | 11.3 | 17.7 | 0.00 | 0.00 | 0.00 | 27 | 1025.1 |
| 20260506093343 | 16 | 246 | 11.3 | 17.7 | 0.00 | 0.00 | 0.00 | 28 | 1025.2 |
| 20260506092339 | 16 | 252 | 11.3 | 16.1 | 0.00 | 0.00 | 0.00 | 28 | 1025.2 |
| 20260506091339 | 16 | 261 | 11.3 | 16.1 | 0.00 | 0.00 | 0.00 | 28 | 1025.1 |
| 20260506090339 | 17 | 228 | 9.7 | 12.9 | 0.00 | 0.00 | 0.00 | 28 | 1025.1 |
| 20260506085338 | 17 | 246 | 11.3 | 16.1 | 0.00 | 0.00 | 0.00 | 27 | 1025.3 |
| 20260506084337 | 17 | 255 | 8.0 | 14.5 | 0.00 | 0.00 | 0.00 | 26 | 1025.5 |
| 20260506083337 | 18 | 244 | 8.0 | 14.5 | 0.00 | 0.00 | 0.00 | 25 | 1025.3 |
| 20260506082337 | 18 | 240 | 11.3 | 14.5 | 0.00 | 0.00 | 0.00 | 24 | 1025.7 |
| 20260506081337 | 18 | 250 | 12.9 | 20.9 | 0.00 | 0.00 | 0.00 | 24 | 1025.6 |
| 20260506080337 | 18 | 256 | 6.4 | 17.7 | 0.00 | 0.00 | 0.00 | 24 | 1025.5 |
| 20260506073327 | 18 | 265 | 11.3 | 17.7 | 0.00 | 0.00 | 0.00 | 26 | 1026.1 |
| 20260506072327 | 18 | 276 | 16.1 | 20.9 | 0.00 | 0.00 | 0.00 | 26 | 1026.1 |
| 20260506071323 | 17 | 287 | 14.5 | 14.5 | 0.00 | 0.00 | 0.00 | 26 | 1026.4 |
| 20260506070322 | 18 | 253 | 12.9 | 17.7 | 0.00 | 0.00 | 0.00 | 26 | 1026.4 |
| 20260506062306 | 18 | 272 | 9.7 | 20.9 | 0.00 | 0.00 | 0.00 | 25 | 1026.5 |
| 20260506061304 | 18 | 239 | 9.7 | 14.5 | 0.00 | 0.00 | 0.00 | 23 | 1026.8 |
| 20260506060300 | 19 | 230 | 4.8 | 9.7 | 0.00 | 0.00 | 0.00 | 23 | 1026.6 |
| 20260506051249 | 19 | 262 | 4.8 | 11.3 | 0.00 | 0.00 | 0.00 | 24 | 1027.0 |
| 20260506050244 | 20 | 250 | 8.0 | 12.9 | 0.00 | 0.00 | 0.00 | 23 | 1027.0 |
| 20260506044243 | 20 | 249 | 8.0 | 11.3 | 0.00 | 0.00 | 0.00 | 22 | 1026.6 |
| 20260506043238 | 20 | 262 | 11.3 | 16.1 | 0.00 | 0.00 | 0.00 | 22 | 1026.8 |
| 20260506042235 | 20 | 268 | 8.0 | 14.5 | 0.00 | 0.00 | 0.00 | 21 | 1026.1 |
| 20260506041230 | 20 | 276 | 11.3 | 16.1 | 0.00 | 0.00 | 0.00 | 21 | 1026.2 |
| 20260506040230 | 20 | 260 | 11.3 | 17.7 | 0.00 | 0.00 | 0.00 | 21 | 1026.2 |
| 20260506035229 | 21 | 239 | 12.9 | 14.5 | 0.00 | 0.00 | 0.00 | 20 | 1026.0 |
| 20260506034229 | 21 | 244 | 8.0 | 22.5 | 0.00 | 0.00 | 0.00 | 19 | 1025.7 |
| 20260506033229 | 21 | 231 | 16.1 | 22.5 | 0.00 | 0.00 | 0.00 | 18 | 1025.5 |
| 20260506032229 | 21 | 282 | 17.7 | 17.7 | 0.00 | 0.00 | 0.00 | 17 | 1025.1 |
| 20260506031229 | 22 | 249 | 9.7 | 24.1 | 0.00 | 0.00 | 0.00 | 17 | 1025.3 |
| 20260506030224 | 22 | 259 | 16.1 | 17.7 | 0.00 | 0.00 | 0.00 | 16 | 1025.2 |
| 20260506025223 | 22 | 253 | 14.5 | 20.9 | 0.00 | 0.00 | 0.00 | 16 | 1025.3 |
| 20260506024223 | 22 | 246 | 17.7 | 22.5 | 0.00 | 0.00 | 0.00 | 15 | 1024.8 |
| 20260506023222 | 22 | 260 | 16.1 | 22.5 | 0.00 | 0.00 | 0.00 | 15 | 1025.0 |
| 20260506022217 | 23 | 263 | 9.7 | 17.7 | 0.00 | 0.00 | 0.00 | 14 | 1024.8 |
| 20260506021217 | 23 | 247 | 9.7 | 16.1 | 0.00 | 0.00 | 0.00 | 14 | 1024.5 |
| 20260506020212 | 23 | 240 | 14.5 | 20.9 | 0.00 | 0.00 | 0.00 | 14 | 1024.5 |
| 20260506015212 | 23 | 246 | 11.3 | 16.1 | 0.00 | 0.00 | 0.00 | 14 | 1024.1 |
| 20260506014211 | 23 | 249 | 19.3 | 24.1 | 0.00 | 0.00 | 0.00 | 13 | 1024.3 |
| 20260506013206 | 24 | 275 | 9.7 | 22.5 | 0.00 | 0.00 | 0.00 | 13 | 1024.2 |
| 20260506012204 | 24 | 243 | 16.1 | 25.7 | 0.00 | 0.00 | 0.00 | 13 | 1023.9 |
| 20260506011203 | 25 | 236 | 12.9 | 22.5 | 0.00 | 0.00 | 0.00 | 12 | 1023.9 |
| 20260506010159 | 25 | 270 | 22.5 | 29.0 | 0.00 | 0.00 | 0.00 | 12 | 1023.7 |
| 20260506005159 | 25 | 253 | 14.5 | 17.7 | 0.00 | 0.00 | 0.00 | 12 | 1023.9 |
| 20260506004159 | 25 | 263 | 16.1 | 22.5 | 0.00 | 0.00 | 0.00 | 12 | 1023.8 |
| 20260506003156 | 25 | 238 | 17.7 | 27.4 | 0.00 | 0.00 | 0.00 | 12 | 1023.7 |
| 20260506002154 | 26 | 243 | 24.1 | 32.2 | 0.00 | 0.00 | 0.00 | 12 | 1023.8 |
| 20260506001154 | 26 | 246 | 29.0 | 33.8 | 0.00 | 0.00 | 0.00 | 12 | 1023.8 |
| 20260506000148 | 26 | 250 | 30.6 | 37.0 | 0.00 | 0.00 | 0.00 | 12 | 1023.7 |
| 20260505235149 | 26 | 261 | 24.1 | 35.4 | 0.00 | 0.00 | 0.00 | 12 | 1023.6 |
| 20260505234148 | 26 | 241 | 22.5 | 33.8 | 0.00 | 0.00 | 0.00 | 13 | 1023.3 |
| 20260505233148 | 26 | 246 | 11.3 | 33.8 | 0.00 | 0.00 | 0.00 | 12 | 1023.6 |
| 20260505232143 | 26 | 287 | 20.9 | 25.7 | 0.00 | 0.00 | 0.00 | 13 | 1023.4 |
| 20260505231139 | 27 | 251 | 12.9 | 37.0 | 0.00 | 0.00 | 0.00 | 13 | 1023.7 |
| 20260505230138 | 27 | 263 | 17.7 | 22.5 | 0.00 | 0.00 | 0.00 | 12 | 1023.6 |
| 20260505225137 | 26 | 260 | 22.5 | 27.4 | 0.00 | 0.00 | 0.00 | 13 | 1023.3 |
| 20260505224137 | 26 | 224 | 24.1 | 35.4 | 0.00 | 0.00 | 0.00 | 12 | 1023.6 |
| 20260505223136 | 27 | 270 | 30.6 | 40.2 | 0.00 | 0.00 | 0.00 | 12 | 1023.6 |
| 20260505222134 | 27 | 261 | 19.3 | 29.0 | 0.00 | 0.00 | 0.00 | 12 | 1023.7 |
| 20260505221134 | 26 | 259 | 25.7 | 37.0 | 0.00 | 0.00 | 0.00 | 12 | 1023.4 |
| 20260505220134 | 26 | 249 | 24.1 | 29.0 | 0.00 | 0.00 | 0.00 | 11 | 1023.8 |
| 20260505215130 | 26 | 223 | 25.7 | 37.0 | 0.00 | 0.00 | 0.00 | 11 | 1024.1 |
| 20260505214130 | 26 | 275 | 27.4 | 41.8 | 0.00 | 0.00 | 0.00 | 11 | 1024.2 |
| 20260505213130 | 27 | 214 | 19.3 | 35.4 | 0.00 | 0.00 | 0.00 | 11 | 1023.9 |
| 20260505212130 | 26 | 255 | 17.7 | 33.8 | 0.00 | 0.00 | 0.00 | 11 | 1024.3 |
| 20260505211130 | 26 | 225 | 16.1 | 35.4 | 0.00 | 0.00 | 0.00 | 12 | 1024.1 |
| 20260505210129 | 26 | 274 | 22.5 | 38.6 | 0.00 | 0.00 | 0.00 | 12 | 1024.6 |
| 20260505205124 | 26 | 250 | 16.1 | 33.8 | 0.00 | 0.00 | 0.00 | 11 | 1024.6 |
| 20260505204125 | 26 | 256 | 14.5 | 27.4 | 0.00 | 0.00 | 0.00 | 12 | 1024.8 |
| 20260505203124 | 26 | 203 | 20.9 | 35.4 | 0.00 | 0.00 | 0.00 | 12 | 1024.7 |
| 20260505202122 | 26 | 185 | 16.1 | 29.0 | 0.00 | 0.00 | 0.00 | 12 | 1025.0 |